Weather History for Wausau, WI

Change the Weather History Date:

Thursday, May 29, 2014

  Actual Average Record
Temperature  
Mean Temperature 66 °F 60 °F  
Max Temperature 82 °F 71 °F 90 °F (2006)
Min Temperature 49 °F 48 °F 31 °F (1965)
Degree Days  
Heating Degree Days 0 6  
Month to date heating degree days 276 296  
Since 1 July heating degree days 9318 8148  
Cooling Degree Days 1 1  
Month to date cooling degree days 16 12  
Year to date cooling degree days 16 14  
Growing Degree Days 14 (Base 50)    
Moisture  
Dew Point 47 °F    
Average Humidity 62    
Maximum Humidity 100    
Minimum Humidity 23    
Precipitation  
Precipitation 0.00 in 0.13 in 2.43 in (1942)
Month to date precipitation 3.48 3.22  
Year to date precipitation 11.44 9.65  
Snow  
Snow 0.00 in 0.00 in 0.00 in ()
Month to date snowfall 0.0 0.2  
Since 1 July snowfall 84.3 59.6  
Snow Depth 0.00 in    
Sea Level Pressure  
Sea Level Pressure 30.14 in    
Wind  
Wind Speed 4 mph (ESE)    
Max Wind Speed 10 mph    
Max Gust Speed 16 mph    
Visibility 10 miles    
Events Rain    
T = Trace of Precipitation, MM = Missing Value Source: NWS Daily Summary

Daily Weather History Graph

Daily Weather History Graph

Search for Another Location

Airport:

Trip Planner

Search our weather history database for the weather conditions in past years. The results will help you decide how hot, cold, wet, or windy it might be!

Date:

Astronomy

May. 29, 2014 Rise Set
Actual Time 5:17 AM CDT 8:35 PM CDT
Civil Twilight 4:41 AM CDT 9:11 PM CDT
Nautical Twilight 3:54 AM CDT 9:58 PM CDT
Astronomical Twilight 2:56 AM CDT 10:56 PM CDT
Moon 6:13 AM CDT (5/29) 9:22 PM CDT (5/29)
Length of Visible Light 16h 30m
Length of Day
15h 18m
New Moon, 1% of the Moon is Illuminated
May 29
New Moon
Jun 5
First Quarter
Jun 12
Full
Jun 19
Last Quarter
Jun 27
New

Hourly Weather History & Observations

Time (CDT) Temp. Dew Point Humidity Pressure Visibility Wind Dir Wind Speed Gust Speed Precip Events Conditions
1:54 AM 54.0 °F 48.0 °F 80% 30.13 in 10.0 mi Calm Calm - N/A   Clear
2:54 AM 52.0 °F 48.0 °F 86% 30.13 in 10.0 mi Calm Calm - N/A   Clear
3:54 AM 50.0 °F 46.9 °F 89% 30.13 in 10.0 mi Calm Calm - N/A   Clear
4:54 AM 48.9 °F 46.9 °F 93% 30.14 in 10.0 mi North 3.5 mph - N/A   Clear
5:54 AM 48.9 °F 48.0 °F 97% 30.15 in 10.0 mi Calm Calm - N/A   Clear
6:54 AM 55.9 °F 50.0 °F 80% 30.17 in 10.0 mi Calm Calm - N/A   Clear
7:54 AM 60.1 °F 48.0 °F 64% 30.18 in 10.0 mi East 3.5 mph - N/A   Clear
8:54 AM 63.0 °F 48.9 °F 60% 30.17 in 10.0 mi East 6.9 mph - N/A   Clear
9:54 AM 66.9 °F 50.0 °F 54% 30.16 in 10.0 mi Variable 3.5 mph - N/A   Clear
10:54 AM 73.0 °F 50.0 °F 44% 30.14 in 10.0 mi Variable 4.6 mph - N/A   Clear
11:54 AM 75.0 °F 46.9 °F 37% 30.14 in 10.0 mi North - - N/A   Clear
12:54 PM 78.1 °F 46.9 °F 33% 30.13 in 10.0 mi SE 8.1 mph - N/A   Clear
1:54 PM 80.1 °F 44.1 °F 28% 30.12 in 10.0 mi ENE 6.9 mph - N/A   Clear
2:54 PM 81.0 °F 41.0 °F 24% 30.12 in 10.0 mi Variable 3.5 mph - 0.00 in Rain Light Rain
5:54 PM 81.0 °F 39.9 °F 23% 30.10 in 10.0 mi ESE 3.5 mph - 0.00 in   Clear
6:54 PM 80.1 °F 43.0 °F 27% 30.10 in 10.0 mi SE 6.9 mph - N/A   Clear
7:54 PM 75.9 °F 44.1 °F 32% 30.11 in 10.0 mi SE 8.1 mph - N/A   Clear
8:54 PM 71.1 °F 48.0 °F 44% 30.12 in 10.0 mi ESE 5.8 mph - N/A   Clear
9:54 PM 66.9 °F 50.0 °F 54% 30.13 in 10.0 mi ESE 3.5 mph - N/A   Clear
10:54 PM 64.0 °F 52.0 °F 65% 30.14 in 10.0 mi ESE 5.8 mph - N/A   Clear
11:54 PM 61.0 °F 53.1 °F 75% 30.15 in 10.0 mi ESE 5.8 mph - N/A   Clear